Location: C�an Torras
(41.5052°N, 1.9280°E)
Time: 17:56:39
(UTC+00:00)

Helios 1A Rocket - Pass Details

Date: 20 January 2021
Orbit: 562 x 586 km, 98.3° (Epoch: 02 March)

Event Time Altitude Azimuth Distance (km) Brightness Sun altitude
Rises 18:33:29 0° 159° (SSE) 2,792 6.3 -18.5°
Reaches altitude 10° 18:35:38 10° 157° (SSE) 1,900 5.4 -18.9°
Maximum altitude 18:39:43 69° 75° (ENE) 629 2.8 -19.7°
Drops below altitude 10° 18:43:52 10° 352° (N) 1,919 5.6 -20.5°
Sets 18:46:02 0° 350° (N) 2,824 6.5 -20.9°
